Weather History for Mercury, NV

Change the Weather History Date:

Tuesday, February 12, 2013

  Actual Average Record
Temperature  
Mean Temperature 42 °F -  
Max Temperature 55 °F 55 °F 68 °F (2002)
Min Temperature 30 °F 35 °F 30 °F (2004)
Degree Days  
Heating Degree Days 22    
Moisture  
Dew Point 14 °F    
Average Humidity 32    
Maximum Humidity 46    
Minimum Humidity 10    
Precipitation  
Precipitation 0.00 in - - ()
Sea Level Pressure  
Sea Level Pressure 30.26 in    
Wind  
Wind Speed 8 mph (NE)    
Max Wind Speed 13 mph    
Max Gust Speed -    
Visibility 10 miles    
Events      
Averages and records for this station are not official NWS values.
T = Trace of Precipitation, MM = Missing Value Source: NWS Daily Summary

Daily Weather History Graph

Daily Weather History Graph

Search for Another Location

Airport:

Trip Planner

Search our weather history database for the weather conditions in past years. The results will help you decide how hot, cold, wet, or windy it might be!

Date:

Astronomy

Feb. 12, 2013 Rise Set
Actual Time 6:35 AM PST 5:22 PM PST
Civil Twilight 6:08 AM PST 5:48 PM PST
Nautical Twilight 5:38 AM PST 6:18 PM PST
Astronomical Twilight 5:08 AM PST 6:49 PM PST
Moon 7:40 AM PST (2/12) 8:20 PM PST (2/12)
Length of Visible Light 11h 40m
Length of Day
10h 46m
Waxing Crescent, 8% of the Moon is Illuminated
Feb 12
Waxing Crescent
Feb 17
First Quarter
Feb 25
Full
Mar 4
Last Quarter
Mar 11
New

Hourly Weather History & Observations

Time (PST) Temp. Windchill Dew Point Humidity Pressure Visibility Wind Dir Wind Speed Gust Speed Precip Events Conditions
12:52 AM 34.0 °F 26.0 °F 12.0 °F 40% 30.22 in 10.0 mi NNE 10.4 mph - N/A   Clear
1:52 AM 33.1 °F 23.9 °F 12.9 °F 43% 30.23 in 10.0 mi NNE 12.7 mph - N/A   Clear
2:52 AM 32.0 °F 26.4 °F 12.9 °F 45% 30.24 in 10.0 mi East 5.8 mph - N/A   Clear
3:52 AM 32.0 °F 24.8 °F 12.0 °F 44% 30.25 in 10.0 mi NE 8.1 mph - N/A   Clear
4:52 AM 32.0 °F 22.5 °F 12.0 °F 44% 30.27 in 10.0 mi NE 12.7 mph - N/A   Clear
6:52 AM 32.0 °F 26.4 °F 10.9 °F 42% 30.31 in 10.0 mi ENE 5.8 mph - N/A   Clear
7:52 AM 34.0 °F 28.0 °F 9.0 °F 35% 30.33 in 10.0 mi ESE 6.9 mph - N/A   Clear
8:52 AM 39.9 °F 33.9 °F 9.0 °F 28% 30.33 in 10.0 mi ENE 9.2 mph - N/A   Clear
9:52 AM 44.1 °F 38.6 °F 10.9 °F 26% 30.32 in 10.0 mi NNE 10.4 mph - N/A   Clear
10:52 AM 46.9 °F - 10.9 °F 23% 30.31 in 10.0 mi Variable 6.9 mph - N/A   Clear
11:52 AM 48.0 °F - 10.9 °F 22% 30.27 in 10.0 mi Calm Calm - N/A   Clear
12:52 PM 51.1 °F - 12.9 °F 22% 30.24 in 10.0 mi NNE 12.7 mph - N/A   Scattered Clouds
1:52 PM 53.1 °F - 14.0 °F 21% 30.22 in 10.0 mi North 6.9 mph - N/A   Scattered Clouds
2:52 PM 54.0 °F - 15.1 °F 22% 30.22 in 10.0 mi North 8.1 mph - N/A   Clear
3:52 PM 55.0 °F - 14.0 °F 20% 30.20 in 10.0 mi NE 6.9 mph - N/A   Clear
4:52 PM 52.0 °F - 12.0 °F 20% 30.21 in 10.0 mi SE 3.5 mph - N/A   Clear
5:52 PM 46.9 °F - 14.0 °F 27% 30.22 in 10.0 mi ESE 5.8 mph - N/A   Clear
6:52 PM 44.1 °F 40.1 °F 15.1 °F 31% 30.25 in 10.0 mi East 6.9 mph - N/A   Clear
7:52 PM 41.0 °F 37.1 °F 18.0 °F 40% 30.25 in 10.0 mi North 5.8 mph - N/A   Clear
8:52 PM 39.0 °F - 18.0 °F 43% 30.25 in 10.0 mi Calm Calm - N/A   Clear
9:52 PM 37.0 °F 34.5 °F 17.1 °F 44% 30.26 in 10.0 mi ESE 3.5 mph - N/A   Clear
10:52 PM 36.0 °F 33.3 °F 17.1 °F 46% 30.25 in 10.0 mi NE 3.5 mph - N/A   Clear
11:52 PM 41.0 °F 34.3 °F 21.0 °F 45% 30.24 in 10.0 mi NNE 11.5 mph - N/A   Clear